Voltar ao catálogo

SL-8 DEB

AtivoLEO
NORAD 6289·DEBRIS·🇷🇺 Russia

Lançado Mar 17, 1969 de Plesetsk Cosmodrome

Loading…

Próximas Passagens (próximas 24 horas)

TLE

AtualizadoSource: Space-Track

Época: Sep 13, 2026, 19:51 UTC

1 06289U 69024C   26256.82718097 -.00000128  00000-0 -23719-3 0  9997
2 06289  73.9878 164.1113 0012274 308.5014 125.3538 13.28273262777287

Acompanhe SL-8 DEB em tempo real com AllMySat

Download on the App Store